Regional Weather Roundup
Issued by NWS Sterling, VA

Home | Current Version | Previous Version | Text Only | Print | Product List | Glossary On
Versions: 1 2 3 4 5 6 7 8 9 10 11 12 13 14 15 16 17 18 19 20 21 22 23 24 25 26 27 28 29 30 31 32 33 34 35 36 37 38 39 40 41 42 43 44 45 46 47 48 49 50
000
ASUS41 KLWX 271610
RWRLWX

REGIONAL WEATHER ROUNDUP
NATIONAL WEATHER SERVICE BALTIMORE MD/WASHINGTON DC
1200 PM EDT FRI MAY 27 2016

Note: "FAIR" indicates few or no clouds below 12,000 feet
with no significant weather and/or obstructions to visibility.
 TC=TEMPERATURE CELSIUS

 * =Non NWS site. Station does not report precipitation (e.g. rain,
    snow, etc.), thunder, or fog.

DCZ001-MDZ009-015-VAZ040>042-051-053>054-271700-
WASHINGTON METRO

CITY           SKY/WX    TMP DP  RH WIND       PRES   REMARKS
WASHINGTON NAT PTSUNNY   83  69  62 S9        30.08F
DULLES         FAIR      84  64  50 VRB3      30.08F
ANDREWS AFB    SUNNY     84  68  58 VRB5      30.08F
FT BELVOIR     FAIR      83  69  61 SE6       30.08F
QUANTICO       FAIR      79  71  76 S6        30.10S
COLLEGE PARK*  FAIR      82  64  54 CALM      30.07F
LEESBURG*      FAIR      86  68  54 NW8       30.09S
MANASSAS*      SUNNY     84  66  54 CALM      30.09S

$$

MDZ006>007-011-014-271700-
BALTIMORE METRO

CITY           SKY/WX    TMP DP  RH WIND       PRES   REMARKS
BWI AIRPORT    PTSUNNY   87  66  49 W7        30.06F
MD SCIENCE CTR   N/A     87  65  47 MISG      30.06F
MARTIN STATE   MOSUNNY   82  73  74 SE12      30.08F
ANNAPOLIS      SUNNY     73  68  84 E14       30.07F
FORT MEADE*    SUNNY     84  66  54 SW5       30.09F

$$

MDZ012-015-019>023-271700-
MARYLAND EASTERN SHORE

CITY           SKY/WX    TMP DP  RH WIND       PRES   REMARKS
OCEAN CITY     SUNNY     72  64  76 S10       30.12S
SALISBURY      SUNNY     83  66  56 SW9       30.10F
BAY BRIDGE AP* SUNNY     81  68  65 S12       30.08F
CAMBRIDGE*     SUNNY     81  68  65 SE6       30.10R
EASTON*        SUNNY     82  73  74 SW8       30.13S

$$

MDZ017>025-271700-
SOUTHERN MARYLAND

CITY           SKY/WX    TMP DP  RH WIND       PRES   REMARKS
PATUXENT RIVER MOSUNNY   78  67  68 SE9       30.10R
ST INIGOES     SUNNY     81  67  62 VRB5      30.10R
LEONARDTOWN*   SUNNY     81  66  61 W7        30.12R

$$

MDZ003>005-271700-
NORTH CENTRAL MARYLAND

CITY           SKY/WX    TMP DP  RH WIND       PRES   REMARKS
FREDERICK*     SUNNY     84  72  65 CALM      30.10F
HAGERSTOWN APT SUNNY     83  63  50 S7        30.08S
WESTMINSTER*   SUNNY     84  81  89 SW7       30.09S HX  98

$$

MDZ501>502-271700-
WESTERN MARYLAND

CITY           SKY/WX    TMP DP  RH WIND       PRES   REMARKS
OAKLAND*       CLOUDY    73  57  56 SW7       30.18S
CUMBERLAND*    CLOUDY    82  68  61 S5        30.11F

$$

VAZ025>031-271700-
SHENANDOAH VALLEY

CITY           SKY/WX    TMP DP  RH WIND       PRES   REMARKS
WINCHESTER*    FAIR      82  64  54 SE6       30.09S
FRONT ROYAL*   FAIR      84  63  48 CALM      30.08F
LURAY*         FAIR      82  63  51 SW5       30.10F
NEW MARKET*    FAIR      83  67  58 S3        30.09F
STAUNTON*      FAIR      82  63  52 CALM      30.14S
WAYNESBORO*    FAIR      80  64  56 W5        30.14S

$$

WVZ021-048>050-054>055-271700-
EASTERN WEST VIRGINIA PANHANDLE

CITY           SKY/WX    TMP DP  RH WIND       PRES   REMARKS
MARTINSBURG    FAIR      83  67  58 SE7       30.07F
PETERSBURG*    FAIR      85  65  51 CALM      30.10R

$$

VAZ036>039-050-271700-
CENTRAL FOOTHILLS

CITY           SKY/WX    TMP DP  RH WIND       PRES   REMARKS
CHARLOTTESVILL FAIR      83  69  62 S3        30.10S
CULPEPER*      FAIR      86  70  58 CALM      30.09F HX  90
ORANGE*        FAIR      86  66  51 CALM      30.11S
GORDONSVILLE*  FAIR      82  69  64 S5        30.09F
WARRENTON*     FAIR      86  62  44 E3        30.09S

$$

VAZ055>057-271700-
NORTH AND CENTRAL PIEDMONT

CITY           SKY/WX    TMP DP  RH WIND       PRES   REMARKS
FREDERICKSBRG* FAIR      85  69  58 W5        30.08F
STAFFORD*      FAIR      83  67  58 SE3       30.13S

$$

NCZ024-NYZ072-PAZ021-071-VAZ022-071-271700-
OTHER REGIONAL OBSERVATIONS

CITY           SKY/WX    TMP DP  RH WIND       PRES   REMARKS
NEW YORK CITY  SUNNY     84  63  49 VRB3      30.09R
PHILADELPHIA   MOSUNNY   83  66  56 SW8       30.07S
PITTSBURGH     MOSUNNY   81  60  48 SW14      30.07S
ROANOKE        FAIR      84  61  45 VRB3      30.14F
RICHMOND       FAIR      82  66  58 S10       30.11F
RALEIGH        MOSUNNY   82  62  50 SW8G16    30.16S

$$

ANZ530>537-271700-
MARINE OBSERVATIONS

STATION/POSITION TIME  TEMP    WIND        PRES
                       AIR SEA DIR/SP/G
                 (UTC) (F)     (DEG/KT/KT) (MB)
THOMAS PT LIGHT  1600   71 67  160/ 12/ 13 1019.9F
BALT KEY BRIDGE  1500   77     100/  6/  7 1018.3R
COVE POINT       1500   70     170/ 10/ 11 1019.5F
LEWISETTA        1500   79 67  190/  5/  6 1018.8F
SOLOMONS ISLAND  1500   77 64  180/  4/  4   N/A
PINEY POINT      1500          140/  8/  8   N/A

$$




USA.gov is the U.S. government's official web portal to all federal, state and local government web resources and services.